Regional Weather Roundup
Issued by NWS Cleveland, OH

Home | Current Version | Previous Version | Graphics & Text | Print | Product List | Glossary On
Versions: 1 2 3 4 5 6 7 8 9 10 11 12 13 14 15 16 17 18 19 20 21 22 23 24 25 26 27 28 29 30 31 32 33 34 35 36 37 38 39 40 41 42 43 44 45 46 47 48 49 50
735
ASUS41 KCLE 031012
RWRCLE
OHIO REGIONAL WEATHER ROUNDUP
NATIONAL WEATHER SERVICE WILMINGTON, OH
500 AM EST SAT DEC 03 2016

NOTE: "FAIR" INDICATES FEW OR NO CLOUDS BELOW 12,000 FEET WITH NO
SIGNIFICANT WEATHER AND/OR OBSTRUCTIONS TO VISIBILITY.

OHZ001>008-015>018-024>027-034-035-043-044-031100-
   NORTHWEST OHIO

CITY           SKY/WX    TMP DP  RH WIND       PRES   REMARKS
DEFIANCE       CLOUDY    35  28  75 SW3       30.30
FINDLAY        CLOUDY    34  28  79 W6        30.28  WCI  29
TOLEDO EXPRESS CLOUDY    35  30  82 W7        30.28S WCI  29
TOLEDO EXEC    CLOUDY    37  30  75 W7        30.29R
LIMA           CLOUDY    34  31  88 W6        30.29S WCI  29
$$

OHZ009>014-019>023-028>033-038-089-031100-
   NORTHEAST OHIO

CITY           SKY/WX    TMP DP  RH WIND       PRES   REMARKS
CLE-HOPKINS    CLOUDY    39  30  70 W9        30.28R
CLE-LAKEFRONT  CLOUDY    39  31  72 W17       30.25
CUY CO. ARPT   NOT AVBL
LORAIN-ELYRIA  CLOUDY    35  27  72 W8        30.27  WCI  29
ASHTABULA      CLOUDY    38  32  79 NW8       30.22
AKRON-CANTON   CLOUDY    35  27  72 W8        30.25R WCI  29
WOOSTER        CLOUDY    34  28  79 NW6       30.26S WCI  29
MANSFIELD      CLOUDY    31  28  89 W5        30.25S WCI  26
YOUNGSTOWN     CLOUDY    35  29  78 W9        30.21R WCI  28
$$

OHZ042-051>053-060>062-070>072-077>081-031100-
  SOUTHWEST OHIO

CITY           SKY/WX    TMP DP  RH WIND       PRES   REMARKS
CINC-COVINGTON CLOUDY    36  34  92 W6        30.33R
CINC-LUNKEN    CLOUDY    38  36  92 W6        30.36R
HAMILTON       CLOUDY    38  34  85 SW6       30.35R
DAYTON         CLOUDY    36  30  79 W7        30.31R
WRIGHT-PAT AFB CLOUDY    37  31  77 W6        30.31R
DAYTON GENERAL CLOUDY    37  30  75 W5        30.31R
WILMINGTON     NOT AVBL
$$

OHZ036-037-039>041-045>050-054>059-063>069-073>076-082>088-031100-
  CENTRAL AND SOUTHEAST OHIO

CITY           SKY/WX    TMP DP  RH WIND       PRES   REMARKS
COLUMBUS       CLOUDY    34  29  82 W3        30.29S
OSU AIRPORT    CLOUDY    35  33  92 W5        30.29S
BOLTON FIELD   CLOUDY    35  32  88 CALM      30.29S
RICKENBACK AFB CLOUDY    35  32  90 CALM      30.29S
NEWARK         NOT AVBL
MARION         FAIR      29  25  85 W5        30.29R WCI  24
LANCASTER      CLOUDY    32  30  92 CALM      30.30S
ZANESVILLE     FAIR      31  24  75 CALM      30.28
NEW PHILLY     CLOUDY    36  30  79 NW7       30.27
$$




USA.gov is the U.S. government's official web portal to all federal, state and local government web resources and services.